Location: Bad Salzschlirf
(50.3750°N, 9.3000°E)
Time: 06:44:24
(UTC+01:00)

ISS - Pass Details

Date: 12 November 2018
Orbit: 401 x 409 km, 51.6° (Epoch: 21 November)

Event Time Altitude Azimuth Distance (km) Brightness Sun altitude
Exits shadow 04:18:37 11° 105° (ESE) 1,424 -0.3 -30.7°
Drops below altitude 10° 04:18:42 10° 105° (ESE) 1,461 -0.3 -30.7°
Sets 04:20:47 0° 105° (ESE) 2,321 1.0 -30.3°
